INMARSAT 6-F2 (55683 NORAD) Tracking and Keplerian Element Data

This shows tracking and keplerian element data for the satellite.

Feedback or suggestion? Click here.




ElementValue
Catalog55683
NameINMARSAT 6-F2
Epoch Orbit58
Epoch Day83.22013253
Epoch Year2023
RAAN44.515
Inclination22.4594
Eccentricity0.7266788
Argument of Perigee179.3649
Mean Anonmoly234.144
Mean Motion1.7643723
Decay Rate-2.17E-06
L11 55683U 23022A 23083.22013253 -.00000217 00000+0 -26289-1 0 9999
L22 55683 22.4594 44.5150 7266788 179.3649 234.1440 1.76437230 581



Live tracking and technical data element details for INMARSAT 6-F2 (NORAD 55683). INMARSAT 6-F2 can be tracked NOW for your location showing map with azimuth and elevation plus other details from your city location.







IsCatalogInMostPopularTable: catalog: 55683, numindb: 4
Update: records affected: 1



GetName: 55683 INMARSAT 6-F2

Hit Count: updated at: Tue, 28 Mar 2023 02:29:56 GMT